FW7086 Weather Reports


Display with metric or nautical units.
time (UTC)temp
F
wind
direction
speed
MPH
gust
MPH
rain 1hr
in
rain 24hr
in
rain mn
in
humidity
%
barometer
mb
20260902155007 89 172 1.0 1.0 0.00 0.00 0.00 60 1016.3
20260902154502 89 202 3.0 6.0 0.00 0.00 0.00 60 1016.4
20260902153957 89 173 2.0 2.0 0.00 0.00 0.00 62 1016.7
20260902153455 89 231 6.0 8.0 0.00 0.00 0.00 63 1016.3
20260902152951 89 201 2.0 3.0 0.00 0.00 0.00 63 1016.4
20260902152447 89 335 0.0 1.0 0.00 0.00 0.00 62 1016.4
20260902151943 89 292 4.0 6.0 0.00 0.00 0.00 61 1016.4
20260902151439 89 2 1.0 1.0 0.00 0.00 0.00 63 1016.2
20260902150938 88 320 2.0 2.0 0.00 0.00 0.00 62 1016.1
20260902150434 89 316 0.0 0.0 0.00 0.00 0.00 62 1016.2
20260902145934 88 28 1.0 1.0 0.00 0.00 0.00 63 1016.3
20260902145429 88 4 1.0 1.0 0.00 0.00 0.00 64 1016.3
20260902144924 87 45 0.0 1.0 0.00 0.00 0.00 65 1016.4
20260902144420 87 158 1.0 2.0 0.00 0.00 0.00 65 1016.4
20260902143920 87 8 0.0 0.0 0.00 0.00 0.00 65 1016.5
20260902143415 87 243 1.0 2.0 0.00 0.00 0.00 65 1016.4
20260902142910 87 254 2.0 4.0 0.00 0.00 0.00 65 1016.4
20260902142406 87 285 3.0 3.0 0.00 0.00 0.00 66 1016.2
20260902141902 86 66 1.0 2.0 0.00 0.00 0.00 67 1016.3
20260902141357 86 271 2.0 2.0 0.00 0.00 0.00 67 1016.4
20260902140856 86 348 2.0 2.0 0.00 0.00 0.00 67 1016.7
20260902140352 86 172 1.0 1.0 0.00 0.00 0.00 66 1016.3
20260902135851 86 204 4.0 6.0 0.00 0.00 0.00 66 1016.1
20260902135347 86 194 2.0 2.0 0.00 0.00 0.00 67 1016.3
20260902134846 85 33 1.0 1.0 0.00 0.00 0.00 68 1016.2
20260902134342 84 157 3.0 3.0 0.00 0.00 0.00 69 1016.3
20260902133837 84 169 2.0 3.0 0.00 0.00 0.00 69 1016.0
20260902133337 84 136 0.0 0.0 0.00 0.00 0.00 69 1016.2
20260902132832 84 73 3.0 4.0 0.00 0.00 0.00 70 1016.3
20260902132327 84 159 0.0 0.0 0.00 0.00 0.00 70 1016.4
20260902131817 83 175 2.0 3.0 0.00 0.00 0.00 70 1016.5
20260902131314 83 200 4.0 6.0 0.00 0.00 0.00 70 1016.5
20260902130813 83 189 1.0 2.0 0.00 0.00 0.00 70 1016.4
20260902130309 83 192 0.0 0.0 0.00 0.00 0.00 70 1016.5
20260902125804 82 165 0.0 1.0 0.00 0.00 0.00 71 1016.8
20260902125300 82 156 1.0 1.0 0.00 0.00 0.00 72 1016.3
20260902124756 82 201 1.0 1.0 0.00 0.00 0.00 72 1016.7
20260902124252 81 163 1.0 1.0 0.00 0.00 0.00 73 1016.4
20260902123752 81 183 3.0 4.0 0.00 0.00 0.00 73 1016.2
20260902123248 81 161 2.0 3.0 0.00 0.00 0.00 74 1016.5
20260902122746 81 190 2.0 2.0 0.00 0.00 0.00 74 1016.3
20260902122243 81 188 2.0 2.0 0.00 0.00 0.00 74 1016.3
20260902121742 81 173 4.0 4.0 0.00 0.00 0.00 74 1016.3
20260902121237 81 201 2.0 2.0 0.00 0.00 0.00 74 1016.5
20260902120733 81 173 1.0 1.0 0.00 0.00 0.00 74 1016.3
20260902120230 80 177 3.0 3.0 0.00 0.00 0.00 75 1016.4
20260902115729 80 308 1.0 1.0 0.00 0.00 0.00 75 1016.5
20260902115226 80 210 2.0 2.0 0.00 0.00 0.00 76 1016.2
20260902114721 80 223 2.0 2.0 0.00 0.00 0.00 77 1016.3
20260902114217 79 154 2.0 3.0 0.00 0.00 0.00 77 1016.2
20260902113717 79 193 2.0 2.0 0.00 0.00 0.00 77 1016.2
20260902113213 79 203 3.0 4.0 0.00 0.00 0.00 77 1016.2
20260902112712 79 212 2.0 2.0 0.00 0.00 0.00 77 1016.4
20260902112210 79 163 2.0 2.0 0.00 0.00 0.00 77 1016.2
20260902111705 79 148 3.0 3.0 0.00 0.00 0.00 77 1016.4
20260902111201 79 216 2.0 3.0 0.00 0.00 0.00 77 1016.3
20260902110656 80 164 2.0 2.0 0.00 0.00 0.00 76 1016.4
20260902110152 80 167 2.0 3.0 0.00 0.00 0.00 76 1016.4
20260902105651 80 150 4.0 7.0 0.00 0.00 0.00 76 1016.5
20260902105147 80 163 2.0 3.0 0.00 0.00 0.00 75 1016.3
20260902104642 80 284 1.0 1.0 0.00 0.00 0.00 76 1016.1
20260902104138 80 161 2.0 4.0 0.00 0.00 0.00 75 1016.2
20260902103637 80 274 1.0 1.0 0.00 0.00 0.00 76 1016.1
20260902103132 80 194 4.0 7.0 0.00 0.00 0.00 75 1016.1
20260902102628 80 170 2.0 3.0 0.00 0.00 0.00 76 1016.3
20260902102126 80 179 3.0 4.0 0.00 0.00 0.00 75 1016.1
20260902101621 80 199 1.0 1.0 0.00 0.00 0.00 75 1016.1
20260902101121 80 214 2.0 2.0 0.00 0.00 0.00 75 1016.3
20260902100620 81 208 2.0 2.0 0.00 0.00 0.00 74 1016.1
20260902100116 81 191 1.0 2.0 0.00 0.00 0.00 74 1016.1
20260902095615 81 241 2.0 2.0 0.00 0.00 0.00 74 1016.3
20260902095114 81 188 0.0 0.0 0.00 0.00 0.00 74 1016.3
20260902094609 81 188 1.0 1.0 0.00 0.00 0.00 74 1016.2
20260902094106 81 203 2.0 3.0 0.00 0.00 0.00 74 1016.3
20260902093605 81 174 1.0 2.0 0.00 0.00 0.00 75 1016.3
20260902093101 81 337 2.0 3.0 0.00 0.00 0.00 74 1016.2
20260902092601 82 205 0.0 0.0 0.00 0.00 0.00 73 1016.0
20260902092056 82 214 3.0 3.0 0.00 0.00 0.00 73 1016.1
20260902091551 82 202 4.0 4.0 0.00 0.00 0.00 73 1015.9
20260902091047 82 156 2.0 2.0 0.00 0.00 0.00 74 1015.9
20260902090543 81 208 2.0 2.0 0.00 0.00 0.00 74 1015.9
20260902090042 81 134 1.0 2.0 0.00 0.00 0.00 75 1015.9
20260902085542 81 178 1.0 2.0 0.00 0.00 0.00 75 1016.0
20260902085037 81 155 1.0 2.0 0.00 0.00 0.00 75 1015.9
20260902084533 81 167 2.0 2.0 0.00 0.00 0.00 76 1016.1
20260902084029 81 193 1.0 1.0 0.00 0.00 0.00 76 1016.0
20260902083524 81 166 1.0 1.0 0.00 0.00 0.00 76 1016.1
20260902083019 81 199 2.0 2.0 0.00 0.00 0.00 76 1016.0
20260902082514 81 180 3.0 3.0 0.00 0.00 0.00 77 1016.0
20260902082010 81 179 0.0 0.0 0.00 0.00 0.00 77 1015.9
20260902081508 81 160 1.0 2.0 0.00 0.00 0.00 77 1015.8
20260902081006 81 194 0.0 1.0 0.00 0.00 0.00 76 1016.0
20260902080503 81 157 1.0 1.0 0.00 0.00 0.00 76 1015.9
20260902080002 81 176 0.0 0.0 0.00 0.00 0.00 76 1015.8
20260902075458 82 197 0.0 0.0 0.00 0.00 0.00 75 1015.9
20260902074954 82 180 1.0 1.0 0.00 0.00 0.00 74 1016.0
20260902074450 82 149 0.0 0.0 0.00 0.00 0.00 75 1015.8
20260902073949 82 181 0.0 1.0 0.00 0.00 0.00 75 1015.9
20260902073446 82 157 1.0 1.0 0.00 0.00 0.00 74 1016.0
20260902072942 82 186 0.0 0.0 0.00 0.00 0.00 74 1015.7
20260902072437 82 191 2.0 2.0 0.00 0.00 0.00 74 1015.6
20260902071934 82 147 1.0 1.0 0.00 0.00 0.00 74 1015.8
20260902071433 82 164 1.0 1.0 0.00 0.00 0.00 75 1015.9
20260902070930 82 190 3.0 3.0 0.00 0.00 0.00 75 1015.7
20260902070425 82 170 1.0 1.0 0.00 0.00 0.00 75 1015.8
20260902065924 82 199 1.0 2.0 0.00 0.00 0.00 76 1015.9
20260902065419 82 148 2.0 2.0 0.00 0.00 0.00 76 1016.1
20260902064914 82 160 0.0 1.0 0.00 0.00 0.00 76 1016.1
20260902064410 82 179 0.0 1.0 0.00 0.00 0.00 76 1016.1
20260902063905 82 225 3.0 3.0 0.00 0.00 0.00 76 1015.9
20260902063405 82 210 1.0 2.0 0.00 0.00 0.00 77 1015.8
20260902062900 82 167 2.0 2.0 0.00 0.00 0.00 77 1016.0
20260902062359 82 166 0.0 1.0 0.00 0.00 0.00 77 1016.1
20260902061859 82 187 1.0 1.0 0.00 0.00 0.00 77 1015.9
20260902061354 81 241 0.0 0.0 0.00 0.00 0.00 78 1016.0
20260902060850 81 165 0.0 1.0 0.00 0.00 0.00 78 1016.0
20260902060346 81 207 0.0 0.0 0.00 0.00 0.00 78 1015.8
20260902055842 82 161 0.0 0.0 0.00 0.00 0.00 78 1015.7
20260902055337 82 184 0.0 0.0 0.00 0.00 0.00 76 1015.7
20260902054833 83 173 0.0 0.0 0.00 0.00 0.00 75 1015.6
20260902054328 83 165 1.0 2.0 0.00 0.00 0.00 74 1015.7
20260902053824 83 250 2.0 3.0 0.00 0.00 0.00 74 1015.8
20260902053319 83 150 2.0 2.0 0.00 0.00 0.00 74 1015.7
20260902052817 83 157 2.0 2.0 0.00 0.00 0.00 74 1015.7
20260902052313 83 183 1.0 2.0 0.00 0.00 0.00 75 1015.8
20260902051808 83 180 1.0 2.0 0.00 0.00 0.00 74 1015.7
20260902051302 83 178 3.0 4.0 0.00 0.00 0.00 75 1015.9
20260902050757 84 159 1.0 1.0 0.00 0.00 0.00 74 1015.7
20260902050257 84 162 1.0 2.0 0.00 0.00 0.00 74 1015.9
20260902045757 84 181 1.0 2.0 0.00 0.00 0.00 74 1015.9
20260902045253 84 183 2.0 2.0 0.00 0.00 0.00 74 1015.8
20260902044749 84 157 1.0 2.0 0.00 0.00 0.00 74 1015.8
20260902044244 84 209 2.0 2.0 0.00 0.00 0.00 74 1015.8
20260902043738 84 179 3.0 6.0 0.00 0.00 0.00 73 1015.8
20260902043234 84 180 4.0 6.0 0.00 0.00 0.00 74 1015.6
20260902042733 84 216 1.0 1.0 0.00 0.00 0.00 74 1015.7
20260902042228 84 179 2.0 2.0 0.00 0.00 0.00 74 1015.8
20260902041724 84 167 1.0 1.0 0.00 0.00 0.00 74 1015.9
20260902041218 84 166 1.0 2.0 0.00 0.00 0.00 73 1015.9
20260902040718 84 214 2.0 3.0 0.00 0.00 0.00 73 1016.0
20260902040213 84 185 1.0 2.0 0.00 0.00 0.00 73 1015.8
20260902035712 84 216 2.0 2.0 0.00 0.00 0.00 73 1016.0
20260902035208 85 145 2.0 2.0 0.00 0.00 0.00 72 1016.1
20260902034706 85 153 0.0 0.0 0.00 0.00 0.00 71 1016.0
20260902034206 85 149 1.0 2.0 0.00 0.00 0.00 71 1016.1
20260902033705 85 162 3.0 4.0 0.00 0.00 0.00 71 1015.9
20260902033200 86 159 1.0 1.0 0.00 0.00 0.00 71 1015.9
20260902032659 86 190 2.0 2.0 0.00 0.00 0.00 70 1016.2
20260902032154 86 193 5.0 7.0 0.00 0.00 0.00 70 1016.0
20260902031648 86 172 1.0 1.0 0.00 0.00 0.00 70 1016.1
20260902031144 86 142 0.0 0.0 0.00 0.00 0.00 70 1016.1
20260902030639 86 277 1.0 2.0 0.00 0.00 0.00 69 1016.2
20260902030138 86 167 3.0 3.0 0.00 0.00 0.00 69 1016.0
20260902025638 86 181 4.0 6.0 0.00 0.00 0.00 69 1016.1
20260902025134 87 212 3.0 3.0 0.00 0.00 0.00 68 1016.1
20260902024629 87 191 4.0 7.0 0.00 0.00 0.00 68 1015.9
20260902024130 87 167 2.0 3.0 0.00 0.00 0.00 68 1016.0
20260902023625 87 187 4.0 6.0 0.00 0.00 0.00 68 1015.9
20260902023120 87 207 3.0 4.0 0.00 0.00 0.00 68 1016.1
20260902022619 87 170 2.0 2.0 0.00 0.00 0.00 68 1015.9
20260902022116 87 187 0.0 1.0 0.00 0.00 0.00 68 1015.9
20260902021611 87 158 0.0 1.0 0.00 0.00 0.00 67 1016.0
20260902021106 87 172 4.0 4.0 0.00 0.00 0.00 67 1016.0
20260902020601 87 172 3.0 3.0 0.00 0.00 0.00 67 1015.8
20260902020057 87 185 2.0 2.0 0.00 0.00 0.00 67 1015.7
20260902015553 87 177 2.0 2.0 0.00 0.00 0.00 68 1015.7
20260902015048 87 171 0.0 1.0 0.00 0.00 0.00 67 1015.7
20260902014544 87 150 1.0 1.0 0.00 0.00 0.00 67 1015.7
20260902014039 88 157 0.0 0.0 0.00 0.00 0.00 66 1015.7
20260902013539 88 157 0.0 1.0 0.00 0.00 0.00 65 1015.7
20260902013035 88 154 1.0 2.0 0.00 0.00 0.00 65 1015.7
20260902012530 88 193 1.0 2.0 0.00 0.00 0.00 64 1015.6
20260902012025 89 176 3.0 4.0 0.00 0.00 0.00 64 1015.4
20260902011521 89 258 2.0 3.0 0.00 0.00 0.00 63 1015.2
20260902011021 89 178 2.0 2.0 0.00 0.00 0.00 63 1015.3
20260902010520 89 174 2.0 2.0 0.00 0.00 0.00 63 1015.1
20260902010016 89 229 1.0 1.0 0.00 0.00 0.00 63 1015.1
20260902005513 89 184 5.0 6.0 0.00 0.00 0.00 63 1015.1
20260902005010 90 180 2.0 3.0 0.00 0.00 0.00 63 1015.0
20260902004509 90 172 3.0 3.0 0.00 0.00 0.00 63 1014.9
20260902004005 90 202 1.0 3.0 0.00 0.00 0.00 63 1015.0
20260902003500 90 208 2.0 2.0 0.00 0.00 0.00 62 1015.0
20260902002955 90 202 1.0 1.0 0.00 0.00 0.00 63 1014.9
20260902002450 91 176 1.0 1.0 0.00 0.00 0.00 63 1014.9
20260902001950 91 206 3.0 3.0 0.00 0.00 0.00 63 1015.0
20260902001444 91 162 2.0 2.0 0.00 0.00 0.00 63 1014.9
20260902000940 91 223 2.0 3.0 0.00 0.00 0.00 63 1015.1
20260902000436 91 160 1.0 1.0 0.00 0.00 0.00 63 1015.0
20260901235930 91 143 4.0 6.0 0.00 0.00 0.00 63 1015.1
20260901235425 91 163 2.0 3.0 0.00 0.00 0.00 63 1015.3
20260901234920 92 189 0.0 1.0 0.00 0.00 0.00 63 1015.4
20260901234414 92 187 1.0 3.0 0.00 0.00 0.00 62 1015.0
20260901233909 92 172 2.0 3.0 0.00 0.00 0.00 62 1015.0
20260901233404 92 182 2.0 2.0 0.00 0.00 0.00 63 1015.2
20260901232900 92 201 4.0 6.0 0.00 0.00 0.00 63 1015.3
20260901232354 92 176 4.0 4.0 0.00 0.00 0.00 62 1015.4
20260901231850 93 193 2.0 3.0 0.00 0.00 0.00 61 1015.2
20260901231346 93 192 3.0 3.0 0.00 0.00 0.00 61 1015.2
20260901230843 93 226 3.0 4.0 0.00 0.00 0.00 61 1015.2
20260901230342 93 169 4.0 7.0 0.00 0.00 0.00 61 1015.2
20260901225838 93 155 3.0 3.0 0.00 0.00 0.00 61 1015.3
20260901225336 93 202 3.0 3.0 0.00 0.00 0.00 61 1015.3
20260901224832 93 188 3.0 3.0 0.00 0.00 0.00 61 1015.3
20260901224328 93 232 3.0 3.0 0.00 0.00 0.00 60 1015.4
20260901223824 93 164 3.0 6.0 0.00 0.00 0.00 60 1015.4
20260901223319 94 188 1.0 2.0 0.00 0.00 0.00 59 1015.4
20260901222815 93 207 0.0 1.0 0.00 0.00 0.00 59 1015.4
20260901222312 94 174 5.0 7.0 0.00 0.00 0.00 58 1015.2
20260901221808 94 204 2.0 3.0 0.00 0.00 0.00 59 1015.4
20260901221303 94 198 3.0 4.0 0.00 0.00 0.00 59 1015.2
20260901220802 94 201 2.0 2.0 0.00 0.00 0.00 59 1015.2
20260901220301 94 180 5.0 6.0 0.00 0.00 0.00 59 1015.3
20260901215800 94 166 4.0 6.0 0.00 0.00 0.00 59 1015.2
20260901215300 94 206 2.0 3.0 0.00 0.00 0.00 58 1015.2
20260901214758 95 155 2.0 3.0 0.00 0.00 0.00 59 1015.2
20260901214257 95 191 4.0 4.0 0.00 0.00 0.00 58 1015.3
20260901213753 96 170 3.0 3.0 0.00 0.00 0.00 57 1015.1
20260901213252 96 225 5.0 7.0 0.00 0.00 0.00 56 1015.3
20260901212752 96 162 3.0 4.0 0.00 0.00 0.00 57 1015.3
20260901212248 96 228 2.0 2.0 0.00 0.00 0.00 58 1015.1
20260901211742 95 160 5.0 7.0 0.00 0.00 0.00 58 1015.3
20260901211239 96 188 4.0 7.0 0.00 0.00 0.00 57 1015.3
20260901210735 96 228 3.0 6.0 0.00 0.00 0.00 57 1015.4
20260901210230 95 218 2.0 2.0 0.00 0.00 0.00 58 1015.2
20260901205727 96 135 4.0 6.0 0.00 0.00 0.00 58 1015.4
20260901205226 96 188 2.0 2.0 0.00 0.00 0.00 57 1015.3
20260901204722 96 208 2.0 3.0 0.00 0.00 0.00 57 1015.2
20260901204217 96 295 1.0 2.0 0.00 0.00 0.00 58 1015.4
20260901203712 96 177 3.0 4.0 0.00 0.00 0.00 59 1015.6
20260901203207 96 335 1.0 2.0 0.00 0.00 0.00 58 1015.5
20260901202707 96 228 4.0 6.0 0.00 0.00 0.00 58 1015.4
20260901202202 96 185 2.0 3.0 0.00 0.00 0.00 59 1015.3
20260901201658 96 250 2.0 2.0 0.00 0.00 0.00 58 1015.5
20260901201157 95 227 2.0 2.0 0.00 0.00 0.00 59 1015.6
20260901200657 95 166 6.0 8.0 0.00 0.00 0.00 60 1015.4
20260901200152 95 149 4.0 4.0 0.00 0.00 0.00 60 1015.6
20260901195649 97 230 4.0 7.0 0.00 0.00 0.00 58 1015.9
20260901195144 96 184 1.0 1.0 0.00 0.00 0.00 56 1015.4
20260901194639 95 174 2.0 4.0 0.00 0.00 0.00 58 1015.7
20260901194135 95 164 2.0 4.0 0.00 0.00 0.00 59 1015.6
20260901193630 96 202 2.0 2.0 0.00 0.00 0.00 58 1015.8
20260901193124 95 216 2.0 2.0 0.00 0.00 0.00 59 1015.8
20260901192619 95 161 2.0 2.0 0.00 0.00 0.00 58 1015.7
20260901192114 95 178 1.0 2.0 0.00 0.00 0.00 61 1015.9
20260901191610 95 183 4.0 4.0 0.00 0.00 0.00 59 1015.9
20260901191107 95 165 3.0 4.0 0.00 0.00 0.00 60 1015.8
20260901190602 95 235 2.0 2.0 0.00 0.00 0.00 59 1015.7
20260901190101 95 183 4.0 4.0 0.00 0.00 0.00 60 1015.9
20260901185559 95 162 3.0 3.0 0.00 0.00 0.00 59 1015.9
20260901185058 94 241 2.0 3.0 0.00 0.00 0.00 59 1016.1
20260901184554 95 185 2.0 3.0 0.00 0.00 0.00 59 1015.9
20260901184050 95 146 3.0 3.0 0.00 0.00 0.00 60 1016.1
20260901183549 95 126 4.0 6.0 0.00 0.00 0.00 59 1016.0
20260901183045 96 17 1.0 2.0 0.00 0.00 0.00 59 1016.0
20260901182541 95 344 1.0 1.0 0.00 0.00 0.00 62 1015.9
20260901182041 95 308 2.0 3.0 0.00 0.00 0.00 62 1016.0
20260901181541 95 295 1.0 2.0 0.00 0.00 0.00 59 1016.1
20260901181040 95 202 1.0 1.0 0.00 0.00 0.00 58 1016.0
20260901180539 96 326 2.0 2.0 0.00 0.00 0.00 56 1016.1
20260901180035 95 284 2.0 3.0 0.00 0.00 0.00 55 1016.1
20260901175534 96 226 2.0 2.0 0.00 0.00 0.00 56 1016.2
20260901175028 95 282 2.0 3.0 0.00 0.00 0.00 61 1016.1
20260901174524 94 202 2.0 2.0 0.00 0.00 0.00 60 1016.1
20260901174021 95 337 2.0 3.0 0.00 0.00 0.00 61 1016.3
20260901173520 94 193 1.0 1.0 0.00 0.00 0.00 62 1016.3
20260901173016 94 183 3.0 4.0 0.00 0.00 0.00 62 1016.4
20260901172512 93 335 4.0 4.0 0.00 0.00 0.00 62 1016.3
20260901172009 93 146 3.0 6.0 0.00 0.00 0.00 64 1016.5
20260901171509 93 89 3.0 3.0 0.00 0.00 0.00 65 1016.5
20260901171008 93 292 6.0 8.0 0.00 0.00 0.00 65 1016.4
20260901170502 93 13 1.0 2.0 0.00 0.00 0.00 65 1016.5
20260901170002 92 186 2.0 4.0 0.00 0.00 0.00 64 1016.7
20260901165457 93 189 1.0 2.0 0.00 0.00 0.00 63 1016.8
20260901164953 93 56 0.0 0.0 0.00 0.00 0.00 65 1016.8
20260901164448 91 271 2.0 2.0 0.00 0.00 0.00 66 1016.8
20260901163943 92 169 3.0 3.0 0.00 0.00 0.00 66 1016.8
20260901163438 91 351 1.0 1.0 0.00 0.00 0.00 68 1016.8
20260901162937 91 262 2.0 2.0 0.00 0.00 0.00 67 1016.9
20260901162432 90 147 2.0 3.0 0.00 0.00 0.00 68 1016.8
20260901161931 91 155 1.0 2.0 0.00 0.00 0.00 67 1016.8
20260901161431 90 50 1.0 3.0 0.00 0.00 0.00 68 1016.8
20260901160926 90 237 0.0 2.0 0.00 0.00 0.00 70 1016.7
20260901160422 90 165 4.0 4.0 0.00 0.00 0.00 69 1016.4
20260901155921 89 26 2.0 2.0 0.00 0.00 0.00 71 1016.8
20260901155421 89 174 2.0 2.0 0.00 0.00 0.00 70 1016.5